This is the latest recevied weather packets stored in our database for station/object N1ORT. If no packets are shown the sender has not sent any weather packets the latest 10 day(s).
| Time | Temp. | Humidity | Pressure | Rain* | Wind** | Luminosity | Snow |
|---|---|---|---|---|---|---|---|
| 1777398449 | 15° C | 49% | 1020.7 hPa | 0 mm | - | 898 W/m² | - |
| 1777398146 | 15.56° C | 48% | 1020.9 hPa | 0 mm | - | 910 W/m² | - |
| 1777397843 | 16.11° C | 49% | 1020.7 hPa | 0 mm | - | 906 W/m² | - |
| 1777397538 | 15.56° C | 51% | 1020.5 hPa | 0 mm | - | 923 W/m² | - |
| 1777397234 | 16.11° C | 47% | 1020.9 hPa | 0 mm | - | 927 W/m² | - |
| 1777396931 | 15.56° C | 47% | 1020.8 hPa | 0 mm | - | 924 W/m² | - |
| 1777396628 | 15.56° C | 49% | 1020.8 hPa | 0 mm | - | 925 W/m² | - |
| 1777396325 | 16.11° C | 51% | 1021 hPa | 0 mm | - | 934 W/m² | - |
| 1777396021 | 15.56° C | 55% | 1020.9 hPa | 0 mm | - | 940 W/m² | - |
| 1777395716 | 15° C | 51% | 1020.9 hPa | 0 mm | - | 944 W/m² | - |
| 1777395412 | 15.56° C | 52% | 1020.9 hPa | 0 mm | - | 943 W/m² | - |
| 1777395110 | 15.56° C | 49% | 1021 hPa | 0 mm | - | 942 W/m² | - |
| 1777394807 | 15.56° C | 52% | 1020.9 hPa | 0 mm | - | 945 W/m² | - |
| 1777394503 | 15.56° C | 47% | 1020.8 hPa | 0 mm | - | 951 W/m² | - |
| 1777394200 | 15° C | 50% | 1020.9 hPa | 0 mm | - | 951 W/m² | - |
| 1777393895 | 15° C | 51% | 1020.9 hPa | 0 mm | - | 953 W/m² | - |
| 1777393594 | 14.44° C | 51% | 1021.1 hPa | 0 mm | - | 952 W/m² | - |
| 1777393290 | 14.44° C | 51% | 1021.1 hPa | 0 mm | - | 949 W/m² | - |
| 1777392987 | 15° C | 49% | 1021.2 hPa | 0 mm | - | 947 W/m² | - |
| 1777392682 | 15.56° C | 48% | 1021.1 hPa | 0 mm | - | 945 W/m² | - |
| 1777392379 | 15° C | 50% | 1021.3 hPa | 0 mm | - | 945 W/m² | - |
| 1777392074 | 14.44° C | 51% | 1021.3 hPa | 0 mm | - | 942 W/m² | - |
| 1777391769 | 15° C | 48% | 1021.4 hPa | 0 mm | - | 938 W/m² | - |
| 1777391466 | 15.56° C | 46% | 1021.3 hPa | 0 mm | - | 936 W/m² | - |
| 1777391162 | 15.56° C | 46% | 1021.4 hPa | 0 mm | - | 933 W/m² | - |
* Rain latest hour (hover to see other rain measurements)
** Current wind speed in m/s (hover to see current wind gust speed)